TimeEDT,TemperatureF,Dew PointF,Humidity,Sea Level PressureIn,VisibilityMPH,Wind Direction,Wind SpeedMPH,Gust SpeedMPH,PrecipitationIn,Events,Conditions,WindDirDegrees,DateUTC
12:54 AM,37.9,36.0,93,29.90,5.0,East,12.7,19.6,0.04,Rain,Light Rain,90,2013-03-19 04:54:00
1:54 AM,37.9,37.0,97,29.87,8.0,NE,11.5,-,0.02,Rain,Light Rain,50,2013-03-19 05:54:00
2:54 AM,37.9,37.0,97,29.85,5.0,NE,10.4,-,0.09,Rain,Light Rain,50,2013-03-19 06:54:00
3:54 AM,37.9,36.0,93,29.83,6.0,NE,13.8,20.7,0.04,Rain,Light Rain,50,2013-03-19 07:54:00
4:54 AM,37.9,36.0,93,29.81,10.0,ENE,8.1,-,0.00,,Overcast,60,2013-03-19 08:54:00
5:54 AM,37.0,35.1,93,29.79,10.0,NNE,8.1,-,N/A,,Overcast,30,2013-03-19 09:54:00
6:54 AM,37.0,35.1,93,29.79,10.0,NE,10.4,-,N/A,,Overcast,50,2013-03-19 10:54:00
7:25 AM,37.4,35.6,93,29.77,3.0,NE,9.2,-,N/A,,Overcast,50,2013-03-19 11:25:00
7:33 AM,37.4,35.6,93,29.77,2.0,ENE,9.2,-,N/A,,Overcast,60,2013-03-19 11:33:00
7:45 AM,37.4,35.6,93,29.78,1.8,NE,8.1,-,N/A,,Overcast,50,2013-03-19 11:45:00
7:54 AM,37.0,36.0,96,29.77,1.8,NE,10.4,-,N/A,,Overcast,40,2013-03-19 11:54:00
8:18 AM,37.4,35.6,93,29.77,2.0,NE,8.1,-,N/A,,Overcast,40,2013-03-19 12:18:00
8:54 AM,37.0,36.0,96,29.78,2.0,North,4.6,-,0.01,Rain,Light Rain,360,2013-03-19 12:54:00
9:10 AM,37.4,35.6,93,29.78,1.8,North,5.8,-,0.00,Rain,Light Rain,10,2013-03-19 13:10:00
9:41 AM,37.4,35.6,93,29.79,2.0,NNW,9.2,-,0.01,Rain,Rain,330,2013-03-19 13:41:00
9:54 AM,37.0,35.1,93,29.80,3.0,NNW,8.1,-,0.02,Rain,Light Rain,330,2013-03-19 13:54:00
10:16 AM,35.6,35.6,100,29.81,2.5,NW,9.2,-,0.01,,Overcast,320,2013-03-19 14:16:00
10:24 AM,35.6,35.6,100,29.80,2.0,NNW,9.2,-,0.01,,Overcast,330,2013-03-19 14:24:00
10:54 AM,37.0,35.1,93,29.80,5.0,NNW,8.1,-,0.02,Rain,Light Rain,330,2013-03-19 14:54:00
11:54 AM,39.0,36.0,89,29.80,10.0,NW,11.5,-,0.04,,Overcast,320,2013-03-19 15:54:00
12:13 PM,39.2,35.6,87,29.80,10.0,NNW,11.5,-,N/A,,Overcast,330,2013-03-19 16:13:00
12:54 PM,42.1,37.9,85,29.78,10.0,NW,6.9,-,N/A,,Overcast,320,2013-03-19 16:54:00
1:29 PM,44.6,37.4,76,29.76,10.0,NNW,13.8,18.4,N/A,,Mostly Cloudy,330,2013-03-19 17:29:00
1:38 PM,46.4,37.4,71,29.75,10.0,North,9.2,18.4,N/A,,Scattered Clouds,360,2013-03-19 17:38:00
1:54 PM,46.9,36.0,66,29.75,10.0,North,17.3,21.9,N/A,,Scattered Clouds,350,2013-03-19 17:54:00
2:54 PM,48.0,33.1,56,29.75,10.0,NW,15.0,-,N/A,,Mostly Cloudy,310,2013-03-19 18:54:00
3:54 PM,50.0,30.0,46,29.75,10.0,WNW,12.7,21.9,N/A,,Mostly Cloudy,300,2013-03-19 19:54:00
4:54 PM,50.0,28.9,44,29.74,10.0,NW,10.4,19.6,N/A,,Partly Cloudy,310,2013-03-19 20:54:00
5:54 PM,50.0,28.0,43,29.73,10.0,WNW,9.2,18.4,N/A,,Clear,290,2013-03-19 21:54:00
6:54 PM,48.9,28.0,44,29.74,10.0,WNW,9.2,-,0.00,,Overcast,290,2013-03-19 22:54:00
7:54 PM,46.0,28.0,50,29.75,10.0,West,10.4,-,N/A,,Clear,270,2013-03-19 23:54:00
8:54 PM,46.9,19.0,33,29.78,10.0,NW,15.0,21.9,N/A,,Clear,320,2013-03-20 00:54:00
9:54 PM,42.1,17.1,37,29.84,10.0,NNW,13.8,29.9,N/A,,Clear,330,2013-03-20 01:54:00
10:54 PM,39.0,17.1,41,29.86,10.0,WNW,16.1,29.9,N/A,,Clear,300,2013-03-20 02:54:00
11:54 PM,37.0,18.0,46,29.88,10.0,NW,11.5,-,N/A,,Mostly Cloudy,320,2013-03-20 03:54:00